• In Belgium
  • List of Countries
  • For 7 days
  • Water Temperature
  • Satellite Maps
  • Weather Map
  • Weather Widgets
  • user-avatar
    Login

    Hourly Weather Pelageinskoe

    Today, 21 September, Friday

    Time Temperature Precipitation Wind Pressure Humidity
    00:00 +15°C° 0 mm 2 mps 751 mmHg 93%
    01:00 +14°C° 0 mm 2 mps 751 mmHg 93%
    02:00 +14°C° 0 mm 2 mps 751 mmHg 94%
    03:00 +14°C° 0 mm 2 mps 751 mmHg 94%
    04:00 +14°C° 0 mm 2 mps 752 mmHg 94%
    05:00 +13°C° 0 mm 2 mps 752 mmHg 95%
    06:00 +13°C° 0 mm 2 mps 752 mmHg 95%
    07:00 +15°C° 0 mm 2 mps 752 mmHg 89%
    08:00 +16°C° 0 mm 2 mps 752 mmHg 84%
    09:00 +18°C° 0 mm 2 mps 753 mmHg 78%
    10:00 +19°C° 0 mm 3 mps 753 mmHg 72%
    11:00 +21°C° 0 mm 3 mps 753 mmHg 66%
    12:00 +24°C° 0 mm 3 mps 753 mmHg 60%
    13:00 +24°C° 0 mm 3 mps 753 mmHg 59%
    14:00 +25°C° 0 mm 3 mps 753 mmHg 58%
    15:00 +26°C° 0 mm 3 mps 753 mmHg 57%
    16:00 +24°C° 0 mm 2 mps 753 mmHg 63%
    17:00 +23°C° 0 mm 2 mps 752 mmHg 68%
    18:00 +21°C° 0 mm 2 mps 752 mmHg 74%
    19:00 +20°C° 0 mm 2 mps 752 mmHg 78%
    20:00 +19°C° 0 mm 2 mps 752 mmHg 82%
    21:00 +18°C° 0 mm 2 mps 752 mmHg 86%
    22:00 +17°C° 0 mm 2 mps 752 mmHg 86%
    23:00 +17°C° 0 mm 2 mps 752 mmHg 87%

    Tomorrow, 22 September, Saturday

    Time Temperature Precipitation Wind Pressure Humidity
    00:00 +16°C° 0 mm 2 mps 752 mmHg 88%
    01:00 +16°C° 0 mm 2 mps 752 mmHg 88%
    02:00 +15°C° 0 mm 2 mps 752 mmHg 88%
    03:00 +15°C° 0 mm 2 mps 752 mmHg 89%
    04:00 +15°C° 0 mm 2 mps 752 mmHg 89%
    05:00 +14°C° 0 mm 3 mps 752 mmHg 90%
    06:00 +14°C° 0 mm 3 mps 751 mmHg 91%
    07:00 +16°C° 0 mm 3 mps 751 mmHg 86%
    08:00 +18°C° 0 mm 3 mps 751 mmHg 82%
    09:00 +19°C° 0 mm 4 mps 751 mmHg 77%
    10:00 +21°C° 0 mm 5 mps 751 mmHg 69%
    11:00 +23°C° 0 mm 5 mps 750 mmHg 61%
    12:00 +26°C° 0 mm 6 mps 750 mmHg 54%
    13:00 +26°C° 0 mm 6 mps 749 mmHg 52%
    14:00 +26°C° 0 mm 6 mps 749 mmHg 51%
    15:00 +27°C° 0 mm 6 mps 748 mmHg 49%
    16:00 +25°C° 0.1 mm 5 mps 748 mmHg 55%
    17:00 +23°C° 0.1 mm 4 mps 747 mmHg 61%
    18:00 +22°C° 0.1 mm 4 mps 747 mmHg 67%
    19:00 +21°C° 0 mm 4 mps 747 mmHg 69%
    20:00 +20°C° 0 mm 4 mps 747 mmHg 71%
    21:00 +19°C° 0 mm 4 mps 746 mmHg 73%
    22:00 +19°C° 0.1 mm 4 mps 746 mmHg 75%
    23:00 +18°C° 0.1 mm 4 mps 746 mmHg 76%

    Day after tomorrow, 23 September, Sunday

    Time Temperature Precipitation Wind Pressure Humidity
    00:00 +18°C° 0.1 mm 4 mps 746 mmHg 78%
    01:00 +17°C° 0.4 mm 4 mps 746 mmHg 81%
    02:00 +17°C° 0.4 mm 4 mps 745 mmHg 84%
    03:00 +16°C° 0.4 mm 3 mps 745 mmHg 87%
    04:00 +14°C° 0.2 mm 3 mps 745 mmHg 88%
    05:00 +13°C° 0.2 mm 3 mps 745 mmHg 89%
    06:00 +14°C° 0.2 mm 2 mps 745 mmHg 90%
    07:00 +13°C° 0.4 mm 2 mps 745 mmHg 90%
    08:00 +12°C° 0.4 mm 3 mps 744 mmHg 90%
    09:00 +12°C° 0.4 mm 3 mps 744 mmHg 89%
    10:00 +11°C° 0.9 mm 3 mps 744 mmHg 90%
    11:00 +11°C° 0.9 mm 3 mps 744 mmHg 90%
    12:00 +11°C° 0.9 mm 3 mps 744 mmHg 90%
    13:00 +10°C° 2 mm 3 mps 744 mmHg 91%
    14:00 +10°C° 2 mm 4 mps 743 mmHg 92%
    15:00 +8°C° 2 mm 4 mps 743 mmHg 93%
    16:00 +8°C° 1.6 mm 4 mps 743 mmHg 93%
    17:00 +9°C° 1.6 mm 3 mps 743 mmHg 93%
    18:00 +9°C° 1.6 mm 3 mps 744 mmHg 93%
    19:00 +9°C° 0.2 mm 3 mps 744 mmHg 94%
    20:00 +9°C° 0.2 mm 2 mps 744 mmHg 95%
    21:00 +9°C° 0.2 mm 2 mps 744 mmHg 96%
    22:00 +9°C° 0 mm 2 mps 744 mmHg 96%
    23:00 +8°C° 0 mm 2 mps 745 mmHg 96%

    24 September, Monday

    Time Temperature Precipitation Wind Pressure Humidity
    00:00 +8°C° 0 mm 2 mps 745 mmHg 96%
    01:00 +8°C° 0 mm 2 mps 745 mmHg 96%
    02:00 +7°C° 0 mm 2 mps 745 mmHg 96%
    03:00 +7°C° 0 mm 2 mps 745 mmHg 96%
    04:00 +7°C° 0 mm 2 mps 745 mmHg 96%
    05:00 +7°C° 0 mm 3 mps 745 mmHg 97%
    06:00 +5°C° 0 mm 3 mps 745 mmHg 97%
    07:00 +7°C° 0 mm 3 mps 745 mmHg 95%
    08:00 +8°C° 0 mm 3 mps 745 mmHg 93%
    09:00 +7°C° 0 mm 4 mps 745 mmHg 90%
    10:00 +9°C° 0 mm 3 mps 746 mmHg 88%
    11:00 +9°C° 0 mm 3 mps 746 mmHg 86%
    12:00 +9°C° 0 mm 3 mps 746 mmHg 84%
    13:00 +10°C° 0 mm 3 mps 746 mmHg 80%
    14:00 +10°C° 0 mm 2 mps 746 mmHg 77%
    15:00 +12°C° 0 mm 2 mps 746 mmHg 73%
    16:00 +10°C° 0 mm 2 mps 746 mmHg 76%
    17:00 +10°C° 0 mm 2 mps 746 mmHg 79%
    18:00 +10°C° 0 mm 2 mps 746 mmHg 81%
    19:00 +9°C° 0 mm 2 mps 746 mmHg 83%
    20:00 +9°C° 0 mm 3 mps 745 mmHg 84%
    21:00 +9°C° 0 mm 3 mps 745 mmHg 86%
    22:00 +9°C° 0.4 mm 3 mps 744 mmHg 87%
    23:00 +9°C° 0.4 mm 3 mps 744 mmHg 88%

    25 September, Tuesday

    Time Temperature Precipitation Wind Pressure Humidity
    00:00 +8°C° 0.4 mm 4 mps 743 mmHg 90%
    01:00 +8°C° 0.8 mm 4 mps 742 mmHg 90%
    02:00 +8°C° 0.8 mm 5 mps 741 mmHg 90%
    03:00 +8°C° 0.8 mm 6 mps 740 mmHg 90%
    04:00 +8°C° 2 mm 6 mps 739 mmHg 90%
    05:00 +8°C° 2 mm 6 mps 739 mmHg 90%
    06:00 +8°C° 2 mm 7 mps 738 mmHg 91%
    07:00 +8°C° 1.3 mm 7 mps 737 mmHg 90%
    08:00 +8°C° 1.3 mm 6 mps 736 mmHg 90%
    09:00 +8°C° 1.3 mm 6 mps 736 mmHg 90%
    10:00 +9°C° 0.4 mm 6 mps 735 mmHg 89%
    11:00 +9°C° 0.4 mm 6 mps 735 mmHg 88%
    12:00 +9°C° 0.4 mm 5 mps 735 mmHg 87%
    13:00 +10°C° 0.4 mm 5 mps 735 mmHg 86%
    14:00 +11°C° 0.4 mm 4 mps 735 mmHg 84%
    15:00 +11°C° 0.4 mm 4 mps 734 mmHg 83%
    16:00 +10°C° 0.4 mm 3 mps 734 mmHg 85%
    17:00 +10°C° 0.4 mm 3 mps 734 mmHg 87%
    18:00 +9°C° 0.4 mm 2 mps 734 mmHg 89%
    19:00 +9°C° 0.3 mm 2 mps 734 mmHg 91%
    20:00 +9°C° 0.3 mm 2 mps 734 mmHg 92%
    21:00 +8°C° 0.3 mm 2 mps 734 mmHg 94%
    22:00 +8°C° 0.6 mm 2 mps 734 mmHg 94%
    23:00 +8°C° 0.6 mm 2 mps 734 mmHg 95%

    26 September, Wednesday

    Time Temperature Precipitation Wind Pressure Humidity
    00:00 +8°C° 0.6 mm 2 mps 734 mmHg 95%
    01:00 +8°C° 0.4 mm 2 mps 734 mmHg 95%
    02:00 +8°C° 0.4 mm 2 mps 734 mmHg 95%
    03:00 +8°C° 0.4 mm 2 mps 735 mmHg 95%
    04:00 +8°C° 0.3 mm 2 mps 735 mmHg 96%
    05:00 +8°C° 0.3 mm 2 mps 735 mmHg 96%
    06:00 +8°C° 0.3 mm 2 mps 735 mmHg 96%
    07:00 +8°C° 0.3 mm 2 mps 736 mmHg 95%
    08:00 +8°C° 0.3 mm 2 mps 736 mmHg 94%
    09:00 +8°C° 0.3 mm 2 mps 737 mmHg 93%
    10:00 +9°C° 0.3 mm 3 mps 737 mmHg 91%
    11:00 +9°C° 0.3 mm 3 mps 738 mmHg 90%
    12:00 +9°C° 0.3 mm 3 mps 739 mmHg 89%
    13:00 +8°C° 0.2 mm 4 mps 740 mmHg 88%
    14:00 +8°C° 0.2 mm 4 mps 741 mmHg 87%
    15:00 +10°C° 0.2 mm 4 mps 741 mmHg 86%
    16:00 +8°C° 0.2 mm 4 mps 742 mmHg 87%
    17:00 +8°C° 0.2 mm 4 mps 743 mmHg 89%
    18:00 +8°C° 0.2 mm 4 mps 744 mmHg 90%
    19:00 +7°C° 0.2 mm 5 mps 745 mmHg 90%
    20:00 +7°C° 0.2 mm 5 mps 746 mmHg 90%
    21:00 +7°C° 0.2 mm 5 mps 747 mmHg 90%
    22:00 +7°C° 0.1 mm 5 mps 748 mmHg 89%
    23:00 +6°C° 0.1 mm 5 mps 748 mmHg 89%
    Show more